Weather History for KADM - November, 2011

Change the Weather History Date:

Sunday, November 6, 2011

  Actual Average Record
Temperature  
Mean Temperature 63 °F -  
Max Temperature 71 °F 63 °F 78 °F (1999)
Min Temperature 55 °F 45 °F 30 °F (2010)
Degree Days  
Heating Degree Days 2    
Growing Degree Days 13 (Base 50)    
Moisture  
Dew Point 55 °F    
Average Humidity 74    
Maximum Humidity 83    
Minimum Humidity 63    
Precipitation  
Precipitation 0.00 in - - ()
Sea Level Pressure  
Sea Level Pressure 29.93 in    
Wind  
Wind Speed 8 mph (SSE)    
Max Wind Speed 15 mph    
Max Gust Speed 23 mph    
Visibility 10 miles    
Events Rain , Thunderstorm    
Averages and records for this station are not official NWS values.
T = Trace of Precipitation, MM = Missing Value Source: NWS Daily Summary

Daily Weather History Graph

Daily Weather History Graph

Search for Another Location

Airport or City:

Trip Planner

Search our weather history database for the weather conditions in past years. The results will help you decide how hot, cold, wet, or windy it might be!

Date:

Astronomy

Nov. 06, 2011 Rise Set
Actual Time 6:52 AM CST 5:30 PM CST
Civil Twilight 6:26 AM CST 5:56 PM CST
Nautical Twilight 5:56 AM CST 6:26 PM CST
Astronomical Twilight 5:26 AM CST 6:55 PM CST
Moon 3:07 PM CST (11/6) 3:08 AM CST (11/6)
Length of Visible Light 11h 30m
Length of Day
10h 38m
Waxing Gibbous, 86% of the Moon is Illuminated
Nov 6
Waxing Gibbous
Nov 10
Full
Nov 18
Last Quarter
Nov 25
New
Dec 2
First Quarter

Hourly Weather History & Observations

Time (CST) Temp. Dew Point Humidity Pressure Visibility Wind Dir Wind Speed Gust Speed Precip Events Conditions
12:35 AM 55.4 °F 44.6 °F 67% 29.87 in 10.0 mi SE 6.9 mph - N/A   Clear
12:55 AM 55.4 °F 46.4 °F 72% 29.87 in 10.0 mi SE 5.8 mph - N/A   Clear
1:15 AM 57.2 °F 46.4 °F 67% 29.87 in 10.0 mi SE 8.1 mph - N/A   Mostly Cloudy
1:35 AM 59.0 °F 46.4 °F 63% 29.89 in 10.0 mi SE 8.1 mph - N/A   Overcast
1:55 AM 59.0 °F 48.2 °F 67% 29.90 in 10.0 mi Calm Calm - N/A   Overcast
1:15 AM 59.0 °F 48.2 °F 67% 29.90 in 10.0 mi Calm Calm - N/A   Overcast
1:35 AM 59.0 °F 50.0 °F 72% 29.90 in 10.0 mi SSE 4.6 mph - N/A   Overcast
1:55 AM 60.8 °F 51.8 °F 72% 29.90 in 10.0 mi South 9.2 mph - N/A   Overcast
2:15 AM 60.8 °F 51.8 °F 72% 29.90 in 10.0 mi SSE 10.4 mph 17.3 mph N/A   Overcast
2:35 AM 60.8 °F 51.8 °F 72% 29.89 in 10.0 mi SSE 11.5 mph 16.1 mph N/A   Overcast
2:55 AM 60.8 °F 51.8 °F 72% 29.90 in 10.0 mi SSE 12.7 mph 16.1 mph N/A   Overcast
3:15 AM 60.8 °F 51.8 °F 72% 29.90 in 10.0 mi SSE 12.7 mph - N/A   Overcast
3:35 AM 60.8 °F 53.6 °F 77% 29.90 in 10.0 mi SSE 13.8 mph 18.4 mph N/A   Overcast
3:55 AM 60.8 °F 53.6 °F 77% 29.90 in 10.0 mi SSE 10.4 mph 16.1 mph N/A   Overcast
4:15 AM 60.8 °F 53.6 °F 77% 29.91 in 10.0 mi SSE 10.4 mph - N/A   Mostly Cloudy
4:55 AM 60.8 °F 53.6 °F 77% 29.92 in 10.0 mi SSE 10.4 mph - N/A   Mostly Cloudy
5:15 AM 60.8 °F 55.4 °F 82% 29.92 in 10.0 mi SSE 9.2 mph - N/A   Scattered Clouds
5:35 AM 60.8 °F 55.4 °F 82% 29.92 in 10.0 mi SSE 9.2 mph - N/A   Scattered Clouds
5:55 AM 60.8 °F 55.4 °F 82% 29.93 in 10.0 mi South 8.1 mph - N/A   Scattered Clouds
7:55 AM 64.4 °F 57.2 °F 77% 29.98 in 10.0 mi SSE 9.2 mph - N/A   Mostly Cloudy
8:55 AM 64.4 °F 57.2 °F 77% 29.99 in 10.0 mi SE 10.4 mph - N/A   Scattered Clouds
9:55 AM 64.4 °F 59.0 °F 83% 30.00 in 10.0 mi SSE 8.1 mph - N/A   Overcast
10:55 AM 68.0 °F 59.0 °F 73% 30.00 in 10.0 mi South 6.9 mph 17.3 mph N/A   Overcast
11:55 AM 66.2 °F 59.0 °F 78% 29.99 in 10.0 mi South 8.1 mph - N/A Rain Light Rain
12:55 PM 66.2 °F 60.8 °F 83% 29.97 in 10.0 mi Calm Calm - N/A   Overcast
1:55 PM 68.0 °F 62.6 °F 83% 29.95 in 10.0 mi Calm Calm - N/A   Mostly Cloudy
2:55 PM 71.6 °F 62.6 °F 73% 29.94 in 10.0 mi SE 6.9 mph - N/A   Scattered Clouds
3:55 PM 71.6 °F 62.6 °F 73% 29.94 in 10.0 mi NNE 5.8 mph - N/A   Mostly Cloudy
9:15 PM 69.8 °F 60.8 °F 73% 29.97 in 10.0 mi SE 9.2 mph - N/A Thunderstorm Thunderstorm
9:35 PM 69.8 °F 60.8 °F 73% 29.95 in 10.0 mi ESE 13.8 mph - N/A Thunderstorm Thunderstorm
10:15 PM 69.8 °F 60.8 °F 73% 29.97 in 10.0 mi SE 13.8 mph 18.4 mph N/A Thunderstorm Thunderstorm
10:55 PM 69.8 °F 60.8 °F 73% 29.97 in 10.0 mi SSE 15.0 mph 23.0 mph N/A Rain , Thunderstorm Light Thunderstorms and Rain